Regional Weather Roundup
Issued by NWS Little Rock, AR

Home | Current Version | Previous Version | Graphics & Text | Print | Product List | Glossary On
Versions: 1 2 3 4 5 6 7 8 9 10 11 12 13 14 15 16 17 18 19 20 21 22 23 24 25 26 27 28 29 30 31 32
000
ASUS44 KLZK 240005
RWRLZK

WEATHER ROUNDUP FOR ARKANSAS
NATIONAL WEATHER SERVICE LITTLE ROCK AR
700 PM CDT SUN APR 23 2017

NOTE: "FAIR" INDICATES FEW OR NO CLOUDS BELOW 12,000 FEET WITH NO
SIGNIFICANT WEATHER AND/OR OBSTRUCTIONS TO VISIBILITY.

ARZ001-003-010-029-240100-
NORTHWEST ARKANSAS

CITY           SKY/WX    TMP DP  RH WIND       PRES   REMARKS
FAYETTEVILLE   SUNNY     66  38  35 N6        30.04S
6HR MIN TEMP:  62; 6HR MAX TEMP:  68;

FORT SMITH     SUNNY     71  37  28 NW10      30.01S
6HR MIN TEMP:  67; 6HR MAX TEMP:  74;

HARRISON       CLEAR     67  33  28 N6        30.03S
6HR MIN TEMP:  62; 6HR MAX TEMP:  70;

BENTONVILLE    SUNNY     64  37  36 NE7       30.05F
6HR MIN TEMP:  63; 6HR MAX TEMP:  66;

ROGERS         SUNNY     64  37  36 N8        30.05F
6HR MIN TEMP:  62; 6HR MAX TEMP:  67;

SILOAM SPGS    SUNNY     63  39  42 N8        30.04F
6HR MIN TEMP:  61; 6HR MAX TEMP:  66;

HIGHFILL       SUNNY     65  39  38 N9        30.04F
6HR MIN TEMP:  64; 6HR MAX TEMP:  70;

SPRINGDALE     SUNNY     64  39  39 N9        30.06S
$$

ARZ004-005-016-240100-
NORTH CENTRAL ARKANSAS

CITY           SKY/WX    TMP DP  RH WIND       PRES   REMARKS
BATESVILLE     CLEAR     70  34  26 NW5       29.96R
FLIPPIN        CLEAR    N/A N/A N/A N5        29.97F
MTN HOME       CLEAR     68  29  23 VRB6      29.99S
6HR MIN TEMP:  64; 6HR MAX TEMP:  71;

$$

ARZ040-041-240100-
WEST CENTRAL ARKANSAS

CITY           SKY/WX    TMP DP  RH WIND       PRES   REMARKS
MENA           SUNNY     70  37  30 N5        30.01F
$$

ARZ009-017-025-026-028-240100-
NORTHEAST ARKANSAS

CITY           SKY/WX    TMP DP  RH WIND       PRES   REMARKS
JONESBORO      CLEAR     65  40  39 NE9       29.95R
6HR MIN TEMP:  63; 6HR MAX TEMP:  69;

NEWPORT        CLEAR     66  50  56 MISG      29.95R
6HR MIN TEMP:  63; 6HR MAX TEMP:  71;

WALNUT RIDGE   CLEAR     66  45  45 NE10      29.95R
6HR MIN TEMP:  64; 6HR MAX TEMP:  72;

BLYTHEVILLE    MOCLDY    63  52  67 E3        29.93S
6HR MIN TEMP:  59; 6HR MAX TEMP:  66;

$$

ARZ022-023-033-042-044-240100-
CENTRAL ARKANSAS

CITY           SKY/WX    TMP DP  RH WIND       PRES   REMARKS
LITTLE ROCK    CLEAR     69  37  30 N10       29.95S
6HR MIN TEMP:  65; 6HR MAX TEMP:  72;

N LITTLE ROCK    N/A     68  40  35 N6        29.97S
6HR MIN TEMP:  63; 6HR MAX TEMP:  71;

JACKSONVILLE   CLEAR     71  39  31 N6        29.95R
6HR MIN TEMP:  65; 6HR MAX TEMP:  73;

CONWAY           N/A     72  39  30 N10       29.95S
SEARCY         CLEAR     70  39  32 N6        29.96R
6HR MIN TEMP:  64; 6HR MAX TEMP:  72;

HOT SPRINGS    CLEAR     71  36  27 N8        29.97S
6HR MIN TEMP:  65; 6HR MAX TEMP:  73;

RUSSELLVILLE   CLEAR     72  35  25 N7        29.98S
6HR MIN TEMP:  67; 6HR MAX TEMP:  74;

$$

ARZ036-240100-
EAST ARKANSAS

CITY           SKY/WX    TMP DP  RH WIND       PRES   REMARKS
WEST MEMPHIS   CLOUDY    60  54  80 CALM      29.92F
6HR MIN TEMP:  58; 6HR MAX TEMP:  62; 6HR PCP:  0.01;

$$

ARZ050-053-066-070-073-240100-
SOUTHWEST ARKANSAS

CITY           SKY/WX    TMP DP  RH WIND       PRES   REMARKS
ARKADELPHIA    FAIR      69  45  41 NW3       29.98S
6HR MIN TEMP:  65; 6HR MAX TEMP:  71;

CAMDEN         CLEAR     68  39  34 N5        29.97S
TEXARKANA      CLEAR     70  43  37 N8        29.99R
6HR MIN TEMP:  64; 6HR MAX TEMP:  71;

EL DORADO      CLEAR     68  45  43 N8        29.97R
DE QUEEN       SUNNY     71  41  33 N7        29.98R
6HR MIN TEMP:  68; 6HR MAX TEMP:  73;

$$

ARZ056-057-069-240100-
SOUTHEAST ARKANSAS

CITY           SKY/WX    TMP DP  RH WIND       PRES   REMARKS
PINE BLUFF     CLEAR     67  45  45 N5        29.95S
6HR MIN TEMP:  64; 6HR MAX TEMP:  69;

STUTTGART      CLEAR     66  43  42 N6        29.95S
6HR MIN TEMP:  63; 6HR MAX TEMP:  70;

MONTICELLO     CLEAR     67  43  41 VRB3      29.95S
6HR MIN TEMP:  62; 6HR MAX TEMP:  70;


$$






USA.gov is the U.S. government's official web portal to all federal, state and local government web resources and services.